{"data":{"norad_id":64698,"intl_designator":"2025-142C","name":"STARLINK-34535","alt_names":[],"object_type":"PAYLOAD","status":"ACTIVE","operator":null,"country":"US","launch_date":"2025-06-28","launch_site_code":"AFWTR","launch_vehicle":null,"mission":null,"orbit_class":"UNKNOWN","rcs_meters":null,"size_class":null,"mass_kg":null,"dimensions":null,"purposes":["comms"],"wikipedia_slug":null,"has_3d_model":false,"image_url":null,"decayed_at":null,"tle_current":{"epoch":"2026-09-20T09:44:25.705248Z","epoch_age_seconds":135729,"freshness":"FRESH","line1":"1 64698U 25142C   26263.40585307  .00004819  00000+0  17189-3 0  9998","line2":"2 64698  70.0009 181.2444 0003504 269.7695  90.3079 15.29594287 68690","mean_motion":15.29594287,"eccentricity":0.0003504,"inclination_deg":70.0009,"raan_deg":181.2444,"arg_perigee_deg":269.7695,"mean_anomaly_deg":90.3079,"bstar":0.00017189,"rev_number":6869,"period_min":94.142611033432,"perigee_km":474.62216755567,"apogee_km":479.42626453588,"semimajor_km":6855.1612160458,"source":"CELESTRAK","updated_at":"2026-09-21T09:00:35.403099Z"}}}